Time,TemperatureF,DewpointF,PressureIn,WindDirection,WindDirectionDegrees,WindSpeedMPH,WindSpeedGustMPH,Humidity,HourlyPrecipIn,Conditions,Clouds,dailyrainin,SoftwareType,DateUTC
2013-02-16 00:00:00,19.7,13.7,30.17,NW,320,0.0,4.0,77,0.00,,---,0.00,VWS V14.00,2013-02-16 05:00:00,
2013-02-16 00:04:00,19.5,13.8,30.17,NW,321,0.0,2.0,78,0.00,,---,0.00,VWS V14.00,2013-02-16 05:04:00,
2013-02-16 00:09:00,19.4,13.7,30.17,NW,320,0.0,2.0,78,0.00,,---,0.00,VWS V14.00,2013-02-16 05:09:00,
2013-02-16 00:14:00,19.3,13.6,30.16,NW,321,0.0,2.0,78,0.00,,---,0.00,VWS V14.00,2013-02-16 05:14:00,
2013-02-16 00:19:00,19.1,13.4,30.16,NW,321,0.0,2.0,78,0.00,,---,0.00,VWS V14.00,2013-02-16 05:19:00,
2013-02-16 00:24:00,19.0,13.6,30.16,NW,321,0.0,2.0,79,0.00,,---,0.00,VWS V14.00,2013-02-16 05:24:00,
2013-02-16 00:29:00,18.8,13.1,30.16,NW,320,0.0,0.0,78,0.00,,---,0.00,VWS V14.00,2013-02-16 05:29:00,
2013-02-16 00:30:00,18.9,13.2,30.16,NW,320,0.0,2.0,78,0.00,,---,0.00,VWS V14.00,2013-02-16 05:30:00,
2013-02-16 00:34:00,18.6,12.9,30.16,NW,321,0.0,0.0,78,0.00,,---,0.00,VWS V14.00,2013-02-16 05:34:00,
2013-02-16 00:39:00,18.7,13.0,30.16,NW,320,1.0,2.0,78,0.00,,---,0.00,VWS V14.00,2013-02-16 05:39:00,
2013-02-16 00:44:00,18.6,13.2,30.16,NW,321,0.0,2.0,79,0.00,,---,0.00,VWS V14.00,2013-02-16 05:44:00,
2013-02-16 00:49:00,18.5,13.1,30.16,NW,321,0.0,2.0,79,0.00,,---,0.00,VWS V14.00,2013-02-16 05:49:00,
2013-02-16 00:54:00,18.4,13.3,30.16,NW,321,0.0,2.0,80,0.00,,---,0.00,VWS V14.00,2013-02-16 05:54:00,
2013-02-16 00:59:00,18.4,13.3,30.16,NW,321,0.0,1.0,80,0.00,,---,0.00,VWS V14.00,2013-02-16 05:59:00,
2013-02-16 01:00:00,18.4,13.3,30.16,NW,321,0.0,2.0,80,0.00,,---,0.00,VWS V14.00,2013-02-16 06:00:00,
2013-02-16 01:04:00,18.5,13.4,30.16,NW,320,0.0,4.0,80,0.00,,---,0.00,VWS V14.00,2013-02-16 06:04:00,
2013-02-16 01:09:00,18.5,13.1,30.16,NW,320,1.0,4.0,79,0.00,,---,0.00,VWS V14.00,2013-02-16 06:09:00,
2013-02-16 01:14:00,18.6,13.2,30.16,NW,321,2.0,4.0,79,0.00,,---,0.00,VWS V14.00,2013-02-16 06:14:00,
2013-02-16 01:19:00,18.6,13.2,30.16,NW,320,2.0,4.0,79,0.00,,---,0.00,VWS V14.00,2013-02-16 06:19:00,
2013-02-16 01:24:00,18.6,13.2,30.16,NW,320,2.0,4.0,79,0.00,,---,0.00,VWS V14.00,2013-02-16 06:24:00,
2013-02-16 01:29:00,18.5,13.4,30.16,NW,321,1.0,2.0,80,0.00,,---,0.00,VWS V14.00,2013-02-16 06:29:00,
2013-02-16 01:30:00,18.6,13.5,30.16,NW,321,2.0,4.0,80,0.00,,---,0.00,VWS V14.00,2013-02-16 06:30:00,
2013-02-16 01:34:00,18.5,13.6,30.16,NW,321,2.0,4.0,81,0.00,,---,0.00,VWS V14.00,2013-02-16 06:34:00,
2013-02-16 01:39:00,18.5,13.6,30.16,NW,320,2.0,5.0,81,0.00,,---,0.00,VWS V14.00,2013-02-16 06:39:00,
2013-02-16 01:44:00,18.6,14.0,30.16,NW,320,5.0,6.0,82,0.00,,---,0.00,VWS V14.00,2013-02-16 06:44:00,
2013-02-16 01:49:00,18.6,14.0,30.15,NW,320,5.0,7.0,82,0.00,,---,0.00,VWS V14.00,2013-02-16 06:49:00,
2013-02-16 01:54:00,18.6,14.0,30.15,NW,320,2.0,7.0,82,0.00,,---,0.00,VWS V14.00,2013-02-16 06:54:00,
2013-02-16 01:59:00,18.5,13.9,30.15,NW,321,3.0,5.0,82,0.00,,---,0.00,VWS V14.00,2013-02-16 06:59:00,
2013-02-16 02:00:00,18.5,13.9,30.15,NW,321,4.0,7.0,82,0.00,,---,0.00,VWS V14.00,2013-02-16 07:00:00,
2013-02-16 02:04:00,18.5,13.9,30.15,NW,320,1.0,5.0,82,0.00,,---,0.00,VWS V14.00,2013-02-16 07:04:00,
2013-02-16 02:09:00,18.4,13.8,30.15,NW,321,3.0,5.0,82,0.00,,---,0.00,VWS V14.00,2013-02-16 07:09:00,
2013-02-16 02:14:00,18.4,13.8,30.15,NW,320,2.0,5.0,82,0.00,,---,0.00,VWS V14.00,2013-02-16 07:14:00,
2013-02-16 02:19:00,18.4,13.8,30.15,NW,320,2.0,5.0,82,0.00,,---,0.00,VWS V14.00,2013-02-16 07:19:00,
2013-02-16 02:24:00,18.4,13.8,30.15,NW,320,2.0,5.0,82,0.00,,---,0.00,VWS V14.00,2013-02-16 07:24:00,
2013-02-16 02:29:00,18.4,13.8,30.15,NW,321,4.0,4.0,82,0.00,,---,0.00,VWS V14.00,2013-02-16 07:29:00,
2013-02-16 02:30:00,18.4,13.8,30.15,NW,320,2.0,6.0,82,0.00,,---,0.00,VWS V14.00,2013-02-16 07:30:00,
2013-02-16 02:34:00,18.3,14.0,30.15,NW,320,3.0,5.0,83,0.00,,---,0.00,VWS V14.00,2013-02-16 07:34:00,
2013-02-16 02:39:00,18.2,13.9,30.14,NW,321,1.0,5.0,83,0.00,,---,0.00,VWS V14.00,2013-02-16 07:39:00,
2013-02-16 02:44:00,18.3,14.0,30.14,NW,320,3.0,5.0,83,0.00,,---,0.00,VWS V14.00,2013-02-16 07:44:00,
2013-02-16 02:49:00,18.4,14.1,30.14,NW,321,2.0,5.0,83,0.00,,---,0.00,VWS V14.00,2013-02-16 07:49:00,
2013-02-16 02:54:00,18.5,14.2,30.14,NW,321,3.0,5.0,83,0.00,,---,0.00,VWS V14.00,2013-02-16 07:54:00,
2013-02-16 02:59:00,18.6,14.6,30.14,NW,320,4.0,4.0,84,0.00,,---,0.00,VWS V14.00,2013-02-16 07:59:00,
2013-02-16 03:00:00,18.5,14.5,30.14,NW,321,3.0,5.0,84,0.00,,---,0.00,VWS V14.00,2013-02-16 08:00:00,
2013-02-16 03:04:00,18.6,14.3,30.14,NW,320,3.0,5.0,83,0.00,,---,0.00,VWS V14.00,2013-02-16 08:04:00,
2013-02-16 03:09:00,18.6,14.3,30.14,NW,320,3.0,5.0,83,0.00,,---,0.00,VWS V14.00,2013-02-16 08:09:00,
2013-02-16 03:14:00,18.6,14.3,30.14,NW,320,3.0,5.0,83,0.00,,---,0.00,VWS V14.00,2013-02-16 08:14:00,
2013-02-16 03:19:00,18.7,14.4,30.14,NW,320,2.0,5.0,83,0.00,,---,0.00,VWS V14.00,2013-02-16 08:19:00,
2013-02-16 03:24:00,18.8,14.5,30.14,NW,321,3.0,5.0,83,0.00,,---,0.00,VWS V14.00,2013-02-16 08:24:00,
2013-02-16 03:29:00,18.8,14.5,30.14,NW,320,1.0,2.0,83,0.00,,---,0.00,VWS V14.00,2013-02-16 08:29:00,
2013-02-16 03:30:00,18.8,14.5,30.14,NW,321,1.0,5.0,83,0.00,,---,0.00,VWS V14.00,2013-02-16 08:30:00,
2013-02-16 03:34:00,18.6,14.3,30.14,NW,320,2.0,2.0,83,0.00,,---,0.00,VWS V14.00,2013-02-16 08:34:00,
2013-02-16 03:39:00,18.5,14.5,30.13,NW,320,0.0,2.0,84,0.00,,---,0.00,VWS V14.00,2013-02-16 08:39:00,
2013-02-16 03:44:00,18.5,14.5,30.13,NW,321,0.0,2.0,84,0.00,,---,0.00,VWS V14.00,2013-02-16 08:44:00,
2013-02-16 03:49:00,18.6,14.6,30.13,NW,320,0.0,2.0,84,0.00,,---,0.00,VWS V14.00,2013-02-16 08:49:00,
2013-02-16 03:54:00,18.6,14.6,30.13,NW,320,0.0,2.0,84,0.00,,---,0.00,VWS V14.00,2013-02-16 08:54:00,
2013-02-16 03:59:00,18.6,14.6,30.13,NW,321,0.0,0.0,84,0.00,,---,0.00,VWS V14.00,2013-02-16 08:59:00,
2013-02-16 04:00:00,18.6,14.6,30.13,NW,320,0.0,2.0,84,0.00,,---,0.00,VWS V14.00,2013-02-16 09:00:00,
2013-02-16 04:04:00,18.7,14.7,30.13,NW,321,0.0,0.0,84,0.00,,---,0.00,VWS V14.00,2013-02-16 09:04:00,
2013-02-16 04:10:00,18.8,14.8,30.12,NW,321,0.0,1.0,84,0.00,,---,0.00,VWS V14.00,2013-02-16 09:10:00,
2013-02-16 04:15:00,18.8,14.8,30.13,NW,320,2.0,4.0,84,0.00,,---,0.00,VWS V14.00,2013-02-16 09:15:00,
2013-02-16 04:20:00,18.6,14.3,30.12,NW,321,0.0,5.0,83,0.00,,---,0.00,VWS V14.00,2013-02-16 09:20:00,
2013-02-16 04:25:00,18.6,14.3,30.12,NW,320,0.0,5.0,83,0.00,,---,0.00,VWS V14.00,2013-02-16 09:25:00,
2013-02-16 04:30:00,18.5,14.2,30.12,NW,320,0.0,2.0,83,0.00,,---,0.00,VWS V14.00,2013-02-16 09:30:00,
2013-02-16 04:35:00,18.4,14.1,30.12,NW,321,0.0,3.0,83,0.00,,---,0.00,VWS V14.00,2013-02-16 09:35:00,
2013-02-16 04:40:00,18.4,14.1,30.12,NW,321,0.0,3.0,83,0.00,,---,0.00,VWS V14.00,2013-02-16 09:40:00,
2013-02-16 04:45:00,18.2,13.9,30.12,NW,320,0.0,3.0,83,0.00,,---,0.00,VWS V14.00,2013-02-16 09:45:00,
2013-02-16 04:50:00,18.2,13.9,30.12,NW,321,1.0,3.0,83,0.00,,---,0.00,VWS V14.00,2013-02-16 09:50:00,
2013-02-16 04:55:00,18.2,13.9,30.12,NW,320,0.0,3.0,83,0.00,,---,0.00,VWS V14.00,2013-02-16 09:55:00,
2013-02-16 05:00:00,18.1,13.8,30.12,NW,321,0.0,0.0,83,0.00,,---,0.00,VWS V14.00,2013-02-16 10:00:00,
2013-02-16 05:05:00,18.1,13.8,30.12,NW,320,0.0,1.0,83,0.00,,---,0.00,VWS V14.00,2013-02-16 10:05:00,
2013-02-16 05:10:00,18.0,13.7,30.12,NW,321,0.0,1.0,83,0.00,,---,0.00,VWS V14.00,2013-02-16 10:10:00,
2013-02-16 05:15:00,18.0,13.7,30.12,NW,320,0.0,1.0,83,0.00,,---,0.00,VWS V14.00,2013-02-16 10:15:00,
2013-02-16 05:20:00,18.1,13.8,30.13,NW,321,0.0,1.0,83,0.00,,---,0.00,VWS V14.00,2013-02-16 10:20:00,
2013-02-16 05:25:00,18.0,13.7,30.13,NW,321,0.0,1.0,83,0.00,,---,0.00,VWS V14.00,2013-02-16 10:25:00,
2013-02-16 05:30:00,17.9,13.6,30.12,NW,320,0.0,0.0,83,0.00,,---,0.00,VWS V14.00,2013-02-16 10:30:00,
2013-02-16 05:35:00,17.9,13.6,30.12,NW,321,0.0,1.0,83,0.00,,---,0.00,VWS V14.00,2013-02-16 10:35:00,
2013-02-16 05:40:00,18.0,13.7,30.12,NW,320,0.0,1.0,83,0.00,,---,0.00,VWS V14.00,2013-02-16 10:40:00,
2013-02-16 05:45:00,17.9,13.6,30.12,NW,321,0.0,1.0,83,0.00,,---,0.00,VWS V14.00,2013-02-16 10:45:00,
2013-02-16 05:50:00,17.9,13.6,30.12,NW,321,0.0,2.0,83,0.00,,---,0.00,VWS V14.00,2013-02-16 10:50:00,
2013-02-16 05:55:00,17.8,13.5,30.12,NW,321,0.0,2.0,83,0.00,,---,0.00,VWS V14.00,2013-02-16 10:55:00,
2013-02-16 06:00:00,17.6,13.6,30.12,NW,320,0.0,0.0,84,0.00,,---,0.00,VWS V14.00,2013-02-16 11:00:00,
2013-02-16 06:05:00,17.6,13.6,30.12,NW,320,0.0,2.0,84,0.00,,---,0.00,VWS V14.00,2013-02-16 11:05:00,
2013-02-16 06:10:00,17.7,13.7,30.12,NW,321,1.0,2.0,84,0.00,,---,0.00,VWS V14.00,2013-02-16 11:10:00,
2013-02-16 06:15:00,17.7,13.7,30.11,NW,321,0.0,2.0,84,0.00,,---,0.00,VWS V14.00,2013-02-16 11:15:00,
2013-02-16 06:20:00,17.8,13.8,30.11,NW,320,0.0,2.0,84,0.00,,---,0.00,VWS V14.00,2013-02-16 11:20:00,
2013-02-16 06:25:00,17.8,13.8,30.11,NW,320,1.0,2.0,84,0.00,,---,0.00,VWS V14.00,2013-02-16 11:25:00,
2013-02-16 06:30:00,17.9,13.9,30.11,NW,320,0.0,0.0,84,0.00,,---,0.00,VWS V14.00,2013-02-16 11:30:00,
2013-02-16 06:35:00,17.9,13.9,30.11,NW,321,0.0,0.0,84,0.00,,---,0.00,VWS V14.00,2013-02-16 11:35:00,
2013-02-16 06:40:00,18.0,16.1,30.11,NW,321,0.0,0.0,92,0.00,,---,0.00,VWS V14.00,2013-02-16 11:40:00,
2013-02-16 06:45:00,18.0,14.0,30.11,NW,320,0.0,0.0,84,0.00,,---,0.00,VWS V14.00,2013-02-16 11:45:00,
2013-02-16 06:50:00,18.1,14.1,30.11,NW,321,0.0,1.0,84,0.00,,---,0.00,VWS V14.00,2013-02-16 11:50:00,
2013-02-16 06:55:00,18.1,14.1,30.11,NW,320,1.0,1.0,84,0.00,,---,0.00,VWS V14.00,2013-02-16 11:55:00,
2013-02-16 07:00:00,18.0,14.0,30.11,NW,320,1.0,2.0,84,0.00,,---,0.00,VWS V14.00,2013-02-16 12:00:00,
2013-02-16 07:05:00,18.0,14.3,30.11,NW,320,1.0,2.0,85,0.00,,---,0.00,VWS V14.00,2013-02-16 12:05:00,
2013-02-16 07:10:00,18.0,14.3,30.11,NW,321,1.0,2.0,85,0.00,,---,0.00,VWS V14.00,2013-02-16 12:10:00,
2013-02-16 07:15:00,17.9,14.2,30.11,NW,321,0.0,2.0,85,0.00,,---,0.00,VWS V14.00,2013-02-16 12:15:00,
2013-02-16 07:20:00,17.8,14.3,30.11,NW,320,1.0,2.0,86,0.00,,---,0.00,VWS V14.00,2013-02-16 12:20:00,
2013-02-16 07:25:00,17.8,14.3,30.11,NW,320,1.0,2.0,86,0.00,,---,0.00,VWS V14.00,2013-02-16 12:25:00,
2013-02-16 07:30:00,17.8,14.3,30.11,NW,320,0.0,2.0,86,0.00,,---,0.00,VWS V14.00,2013-02-16 12:30:00,
2013-02-16 07:35:00,17.9,14.4,30.11,NW,320,1.0,2.0,86,0.00,,---,0.00,VWS V14.00,2013-02-16 12:35:00,
2013-02-16 07:40:00,18.0,14.5,30.11,NW,321,0.0,4.0,86,0.00,,---,0.00,VWS V14.00,2013-02-16 12:40:00,
2013-02-16 07:45:00,18.0,14.5,30.11,NW,321,1.0,4.0,86,0.00,,---,0.00,VWS V14.00,2013-02-16 12:45:00,
2013-02-16 07:50:00,18.1,14.6,30.11,NW,321,1.0,4.0,86,0.00,,---,0.00,VWS V14.00,2013-02-16 12:50:00,
2013-02-16 07:55:00,18.2,14.7,30.11,NW,320,2.0,4.0,86,0.00,,---,0.00,VWS V14.00,2013-02-16 12:55:00,
2013-02-16 08:00:00,18.3,14.8,30.11,NW,320,1.0,3.0,86,0.00,,---,0.00,VWS V14.00,2013-02-16 13:00:00,
2013-02-16 08:05:00,18.4,14.9,30.11,NW,320,2.0,3.0,86,0.00,,---,0.00,VWS V14.00,2013-02-16 13:05:00,
2013-02-16 08:10:00,18.5,15.3,30.11,NW,320,2.0,3.0,87,0.00,,---,0.00,VWS V14.00,2013-02-16 13:10:00,
2013-02-16 08:15:00,18.5,15.3,30.11,NW,321,3.0,3.0,87,0.00,,---,0.00,VWS V14.00,2013-02-16 13:15:00,
2013-02-16 08:20:00,18.6,15.4,30.11,NW,321,1.0,3.0,87,0.00,,---,0.00,VWS V14.00,2013-02-16 13:20:00,
2013-02-16 08:25:00,18.6,15.4,30.12,NW,321,4.0,4.0,87,0.00,,---,0.00,VWS V14.00,2013-02-16 13:25:00,
2013-02-16 08:30:00,18.7,15.5,30.12,NW,320,2.0,3.0,87,0.00,,---,0.00,VWS V14.00,2013-02-16 13:30:00,
2013-02-16 08:35:00,18.8,15.6,30.11,NW,320,1.0,4.0,87,0.00,,---,0.00,VWS V14.00,2013-02-16 13:35:00,
2013-02-16 08:40:00,18.9,15.7,30.12,NW,321,2.0,4.0,87,0.00,,---,0.00,VWS V14.00,2013-02-16 13:40:00,
2013-02-16 08:45:00,19.0,16.0,30.12,NW,320,1.0,4.0,88,0.00,,---,0.00,VWS V14.00,2013-02-16 13:45:00,
2013-02-16 08:50:00,19.1,15.9,30.12,NW,321,2.0,4.0,87,0.00,,---,0.00,VWS V14.00,2013-02-16 13:50:00,
2013-02-16 08:55:00,19.1,15.9,30.12,NW,320,1.0,4.0,87,0.00,,---,0.00,VWS V14.00,2013-02-16 13:55:00,
2013-02-16 09:00:00,19.3,16.1,30.12,NW,321,3.0,4.0,87,0.00,,---,0.00,VWS V14.00,2013-02-16 14:00:00,
2013-02-16 09:05:00,19.4,15.9,30.11,NW,321,3.0,4.0,86,0.00,,---,0.00,VWS V14.00,2013-02-16 14:05:00,
2013-02-16 09:10:00,19.6,16.1,30.11,NW,320,5.0,5.0,86,0.00,,---,0.00,VWS V14.00,2013-02-16 14:10:00,
2013-02-16 09:15:00,19.7,16.2,30.11,NW,320,3.0,5.0,86,0.00,,---,0.00,VWS V14.00,2013-02-16 14:15:00,
2013-02-16 09:20:00,19.8,16.3,30.11,NW,321,1.0,5.0,86,0.00,,---,0.00,VWS V14.00,2013-02-16 14:20:00,
2013-02-16 09:26:00,20.0,16.5,30.11,NW,320,3.0,5.0,86,0.00,,---,0.00,VWS V14.00,2013-02-16 14:26:00,
2013-02-16 09:30:00,20.0,16.2,30.11,NW,321,2.0,5.0,85,0.00,,---,0.00,VWS V14.00,2013-02-16 14:30:00,
2013-02-16 09:31:00,20.0,16.2,30.11,NW,321,3.0,5.0,85,0.00,,---,0.00,VWS V14.00,2013-02-16 14:31:00,
2013-02-16 09:36:00,20.2,16.4,30.11,NW,320,1.0,5.0,85,0.00,,---,0.00,VWS V14.00,2013-02-16 14:36:00,
2013-02-16 09:41:00,20.4,16.6,30.11,NW,321,2.0,5.0,85,0.00,,---,0.00,VWS V14.00,2013-02-16 14:41:00,
2013-02-16 09:46:00,20.4,16.6,30.11,NW,320,3.0,5.0,85,0.00,,---,0.00,VWS V14.00,2013-02-16 14:46:00,
2013-02-16 09:51:00,20.5,16.7,30.11,NW,320,1.0,5.0,85,0.00,,---,0.00,VWS V14.00,2013-02-16 14:51:00,
2013-02-16 09:56:00,20.8,17.3,30.11,NW,320,4.0,5.0,86,0.00,,---,0.00,VWS V14.00,2013-02-16 14:56:00,
2013-02-16 10:00:00,20.9,17.1,30.10,NW,320,3.0,5.0,85,0.00,,---,0.00,VWS V14.00,2013-02-16 15:00:00,
2013-02-16 10:01:00,20.9,17.4,30.10,NW,320,3.0,6.0,86,0.00,,---,0.00,VWS V14.00,2013-02-16 15:01:00,
2013-02-16 10:06:00,20.9,17.1,30.10,NW,320,2.0,6.0,85,0.00,,---,0.00,VWS V14.00,2013-02-16 15:06:00,
2013-02-16 10:11:00,21.2,17.7,30.10,NW,320,2.0,6.0,86,0.00,,---,0.00,VWS V14.00,2013-02-16 15:11:00,
2013-02-16 10:16:00,21.7,18.2,30.11,NW,321,0.0,6.0,86,0.00,,---,0.00,VWS V14.00,2013-02-16 15:16:00,
2013-02-16 10:21:00,21.8,17.7,30.11,NW,319,3.0,6.0,84,0.00,,---,0.00,VWS V14.00,2013-02-16 15:21:00,
2013-02-16 10:26:00,21.4,17.0,30.11,NW,318,1.0,6.0,83,0.00,,---,0.00,VWS V14.00,2013-02-16 15:26:00,
2013-02-16 10:30:00,21.4,17.3,30.11,NW,319,5.0,6.0,84,0.00,,---,0.00,VWS V14.00,2013-02-16 15:30:00,
2013-02-16 10:31:00,21.3,17.0,30.11,NW,319,2.0,5.0,83,0.00,,---,0.00,VWS V14.00,2013-02-16 15:31:00,
2013-02-16 10:36:00,21.3,17.2,30.11,NW,319,2.0,5.0,84,0.00,,---,0.00,VWS V14.00,2013-02-16 15:36:00,
2013-02-16 10:41:00,21.4,17.0,30.11,NW,319,1.0,5.0,83,0.00,,---,0.00,VWS V14.00,2013-02-16 15:41:00,
2013-02-16 10:46:00,21.3,17.0,30.11,NW,318,3.0,5.0,83,0.00,,---,0.00,VWS V14.00,2013-02-16 15:46:00,
2013-02-16 10:51:00,21.3,16.7,30.11,NW,319,5.0,7.0,82,0.00,,---,0.00,VWS V14.00,2013-02-16 15:51:00,
2013-02-16 10:56:00,21.1,16.2,30.10,NW,319,3.0,7.0,81,0.00,,---,0.00,VWS V14.00,2013-02-16 15:56:00,
2013-02-16 11:00:00,21.2,16.3,30.10,NW,319,6.0,8.0,81,0.00,,---,0.00,VWS V14.00,2013-02-16 16:00:00,
2013-02-16 11:01:00,21.2,16.0,30.10,NW,319,4.0,6.0,80,0.00,,---,0.00,VWS V14.00,2013-02-16 16:01:00,
2013-02-16 11:06:00,21.6,16.4,30.10,NW,319,5.0,6.0,80,0.00,,---,0.00,VWS V14.00,2013-02-16 16:06:00,
2013-02-16 11:11:00,21.9,16.1,30.10,NW,319,5.0,7.0,78,0.00,,---,0.00,VWS V14.00,2013-02-16 16:11:00,
2013-02-16 11:16:00,22.3,16.5,30.10,NW,319,6.0,8.0,78,0.00,,---,0.00,VWS V14.00,2013-02-16 16:16:00,
2013-02-16 11:21:00,22.3,16.2,30.10,NW,318,5.0,9.0,77,0.00,,---,0.00,VWS V14.00,2013-02-16 16:21:00,
2013-02-16 11:26:00,21.9,16.4,30.10,NW,318,3.0,9.0,79,0.00,,---,0.00,VWS V14.00,2013-02-16 16:26:00,
2013-02-16 11:30:00,21.8,16.6,30.11,NW,318,6.0,9.0,80,0.00,,---,0.00,VWS V14.00,2013-02-16 16:30:00,
2013-02-16 11:31:00,21.7,16.5,30.11,NW,318,3.0,7.0,80,0.00,,---,0.00,VWS V14.00,2013-02-16 16:31:00,
2013-02-16 11:36:00,21.9,16.7,30.11,NW,318,4.0,7.0,80,0.00,,---,0.00,VWS V14.00,2013-02-16 16:36:00,
2013-02-16 11:41:00,21.6,15.5,30.11,NW,318,4.0,9.0,77,0.00,,---,0.00,VWS V14.00,2013-02-16 16:41:00,
2013-02-16 11:46:00,21.5,15.4,30.11,NW,318,4.0,9.0,77,0.00,,---,0.00,VWS V14.00,2013-02-16 16:46:00,
2013-02-16 11:51:00,21.7,15.6,30.11,NW,317,5.0,9.0,77,0.00,,---,0.00,VWS V14.00,2013-02-16 16:51:00,
2013-02-16 11:56:00,21.7,15.9,30.11,NW,318,1.0,9.0,78,0.00,,---,0.00,VWS V14.00,2013-02-16 16:56:00,
2013-02-16 12:00:00,21.7,16.2,30.10,NW,317,1.0,9.0,79,0.00,,---,0.00,VWS V14.00,2013-02-16 17:00:00,
2013-02-16 12:01:00,21.7,16.8,30.10,NW,317,5.0,6.0,81,0.00,,---,0.00,VWS V14.00,2013-02-16 17:01:00,
2013-02-16 12:06:00,21.7,16.8,30.11,NW,318,5.0,9.0,81,0.00,,---,0.00,VWS V14.00,2013-02-16 17:06:00,
2013-02-16 12:11:00,21.3,16.7,30.10,NW,318,5.0,9.0,82,0.00,,---,0.00,VWS V14.00,2013-02-16 17:11:00,
2013-02-16 12:16:00,21.2,16.6,30.11,NW,318,2.0,9.0,82,0.00,,---,0.00,VWS V14.00,2013-02-16 17:16:00,
2013-02-16 12:21:00,21.1,16.8,30.10,NW,318,2.0,9.0,83,0.00,,---,0.00,VWS V14.00,2013-02-16 17:21:00,
2013-02-16 12:26:00,21.2,16.9,30.10,NW,318,0.0,9.0,83,0.00,,---,0.00,VWS V14.00,2013-02-16 17:26:00,
2013-02-16 12:30:00,21.3,17.0,30.10,NW,317,3.0,9.0,83,0.00,,---,0.00,VWS V14.00,2013-02-16 17:30:00,
2013-02-16 12:31:00,21.3,17.0,30.10,NW,318,5.0,6.0,83,0.00,,---,0.00,VWS V14.00,2013-02-16 17:31:00,
2013-02-16 12:36:00,21.3,17.0,30.10,NW,318,4.0,6.0,83,0.00,,---,0.00,VWS V14.00,2013-02-16 17:36:00,
2013-02-16 12:41:00,21.1,16.5,30.10,NW,318,4.0,7.0,82,0.00,,---,0.00,VWS V14.00,2013-02-16 17:41:00,
2013-02-16 12:46:00,21.0,16.7,30.10,NW,317,7.0,7.0,83,0.00,,---,0.00,VWS V14.00,2013-02-16 17:46:00,
2013-02-16 12:51:00,20.8,16.2,30.10,NW,318,3.0,7.0,82,0.00,,---,0.00,VWS V14.00,2013-02-16 17:51:00,
2013-02-16 12:56:00,20.9,16.3,30.10,NW,318,0.0,7.0,82,0.00,,---,0.00,VWS V14.00,2013-02-16 17:56:00,
2013-02-16 13:00:00,21.0,16.4,30.09,NW,318,3.0,7.0,82,0.00,,---,0.00,VWS V14.00,2013-02-16 18:00:00,
2013-02-16 13:01:00,21.3,16.7,30.09,NW,318,1.0,3.0,82,0.00,,---,0.00,VWS V14.00,2013-02-16 18:01:00,
2013-02-16 13:06:00,21.5,16.6,30.09,NW,318,2.0,7.0,81,0.00,,---,0.00,VWS V14.00,2013-02-16 18:06:00,
2013-02-16 13:11:00,21.3,16.4,30.09,NW,317,2.0,7.0,81,0.00,,---,0.00,VWS V14.00,2013-02-16 18:11:00,
2013-02-16 13:16:00,21.2,16.3,30.09,NW,317,2.0,7.0,81,0.00,,---,0.00,VWS V14.00,2013-02-16 18:16:00,
2013-02-16 13:21:00,21.3,16.1,30.09,NW,317,4.0,7.0,80,0.00,,---,0.00,VWS V14.00,2013-02-16 18:21:00,
2013-02-16 13:26:00,21.1,15.9,30.09,NW,318,3.0,7.0,80,0.00,,---,0.00,VWS V14.00,2013-02-16 18:26:00,
2013-02-16 13:30:00,21.1,15.9,30.09,NW,318,3.0,7.0,80,0.00,,---,0.00,VWS V14.00,2013-02-16 18:30:00,
2013-02-16 13:31:00,21.3,16.1,30.09,NW,318,3.0,7.0,80,0.00,,---,0.00,VWS V14.00,2013-02-16 18:31:00,
2013-02-16 13:36:00,21.6,16.1,30.09,NW,318,3.0,7.0,79,0.00,,---,0.00,VWS V14.00,2013-02-16 18:36:00,
2013-02-16 13:41:00,22.2,16.4,30.09,NW,318,5.0,8.0,78,0.00,,---,0.00,VWS V14.00,2013-02-16 18:41:00,
2013-02-16 13:46:00,22.3,16.5,30.09,NW,319,3.0,8.0,78,0.00,,---,0.00,VWS V14.00,2013-02-16 18:46:00,
2013-02-16 13:51:00,22.5,16.7,30.09,NW,319,5.0,8.0,78,0.00,,---,0.00,VWS V14.00,2013-02-16 18:51:00,
2013-02-16 13:56:00,22.4,16.3,30.09,NW,318,5.0,8.0,77,0.00,,---,0.00,VWS V14.00,2013-02-16 18:56:00,
2013-02-16 14:00:00,22.4,16.3,30.09,NW,318,2.0,8.0,77,0.00,,---,0.00,VWS V14.00,2013-02-16 19:00:00,
2013-02-16 14:01:00,22.6,16.5,30.09,NW,318,4.0,5.0,77,0.00,,---,0.00,VWS V14.00,2013-02-16 19:01:00,
2013-02-16 14:06:00,22.2,15.8,30.09,NW,319,1.0,8.0,76,0.00,,---,0.00,VWS V14.00,2013-02-16 19:06:00,
2013-02-16 14:11:00,22.0,15.6,30.09,NW,317,5.0,8.0,76,0.00,,---,0.00,VWS V14.00,2013-02-16 19:11:00,
2013-02-16 14:16:00,21.9,15.8,30.09,NW,318,4.0,8.0,77,0.00,,---,0.00,VWS V14.00,2013-02-16 19:16:00,
2013-02-16 14:21:00,21.8,15.4,30.09,NW,317,3.0,8.0,76,0.00,,---,0.00,VWS V14.00,2013-02-16 19:21:00,
2013-02-16 14:26:00,21.9,15.5,30.09,NW,318,1.0,8.0,76,0.00,,---,0.00,VWS V14.00,2013-02-16 19:26:00,
2013-02-16 14:30:00,21.9,15.5,30.09,NW,318,2.0,8.0,76,0.00,,---,0.00,VWS V14.00,2013-02-16 19:30:00,
2013-02-16 14:31:00,22.1,16.0,30.09,NW,318,4.0,5.0,77,0.00,,---,0.00,VWS V14.00,2013-02-16 19:31:00,
2013-02-16 14:36:00,22.4,16.0,30.09,NW,318,2.0,5.0,76,0.00,,---,0.00,VWS V14.00,2013-02-16 19:36:00,
2013-02-16 14:41:00,22.3,15.6,30.09,NW,317,4.0,7.0,75,0.00,,---,0.00,VWS V14.00,2013-02-16 19:41:00,
2013-02-16 14:46:00,22.4,15.7,30.08,NW,317,4.0,7.0,75,0.00,,---,0.00,VWS V14.00,2013-02-16 19:46:00,
2013-02-16 14:51:00,22.3,15.6,30.08,NW,318,2.0,8.0,75,0.00,,---,0.00,VWS V14.00,2013-02-16 19:51:00,
2013-02-16 14:56:00,22.4,16.0,30.08,NW,317,2.0,8.0,76,0.00,,---,0.00,VWS V14.00,2013-02-16 19:56:00,
2013-02-16 15:00:00,22.4,16.0,30.08,NW,318,3.0,8.0,76,0.00,,---,0.00,VWS V14.00,2013-02-16 20:00:00,
2013-02-16 15:01:00,22.5,16.1,30.08,NW,318,6.0,7.0,76,0.00,,---,0.00,VWS V14.00,2013-02-16 20:01:00,
2013-02-16 15:06:00,22.6,16.2,30.09,NW,318,1.0,7.0,76,0.00,,---,0.00,VWS V14.00,2013-02-16 20:06:00,
2013-02-16 15:11:00,22.7,16.3,30.09,NW,318,4.0,7.0,76,0.00,,---,0.00,VWS V14.00,2013-02-16 20:11:00,
2013-02-16 15:17:00,22.9,16.2,30.09,NW,317,3.0,7.0,75,0.00,,---,0.00,VWS V14.00,2013-02-16 20:17:00,
2013-02-16 15:22:00,22.9,15.6,30.09,NW,318,1.0,7.0,73,0.00,,---,0.00,VWS V14.00,2013-02-16 20:22:00,
2013-02-16 15:27:00,22.5,15.2,30.09,NW,318,4.0,7.0,73,0.00,,---,0.00,VWS V14.00,2013-02-16 20:27:00,
2013-02-16 15:30:00,22.5,15.2,30.09,NW,318,5.0,7.0,73,0.00,,---,0.00,VWS V14.00,2013-02-16 20:30:00,
2013-02-16 15:32:00,22.0,14.1,30.09,NW,318,2.0,5.0,71,0.00,,---,0.00,VWS V14.00,2013-02-16 20:32:00,
2013-02-16 15:37:00,21.7,14.1,30.09,NW,319,1.0,5.0,72,0.00,,---,0.00,VWS V14.00,2013-02-16 20:37:00,
2013-02-16 15:42:00,21.6,14.9,30.09,NW,317,2.0,5.0,75,0.00,,---,0.00,VWS V14.00,2013-02-16 20:42:00,
2013-02-16 15:47:00,21.4,15.0,30.09,NW,319,2.0,5.0,76,0.00,,---,0.00,VWS V14.00,2013-02-16 20:47:00,
2013-02-16 15:52:00,21.5,14.8,30.09,NW,318,0.0,5.0,75,0.00,,---,0.00,VWS V14.00,2013-02-16 20:52:00,
2013-02-16 15:57:00,21.7,15.0,30.09,NW,318,2.0,5.0,75,0.00,,---,0.00,VWS V14.00,2013-02-16 20:57:00,
2013-02-16 16:00:00,21.6,14.6,30.09,NW,318,1.0,5.0,74,0.00,,---,0.00,VWS V14.00,2013-02-16 21:00:00,
2013-02-16 16:02:00,21.6,14.6,30.10,NW,318,4.0,5.0,74,0.00,,---,0.00,VWS V14.00,2013-02-16 21:02:00,
2013-02-16 16:07:00,21.5,14.5,30.10,NW,318,2.0,5.0,74,0.00,,---,0.00,VWS V14.00,2013-02-16 21:07:00,
2013-02-16 16:12:00,21.3,14.0,30.10,NW,318,2.0,5.0,73,0.00,,---,0.00,VWS V14.00,2013-02-16 21:12:00,
2013-02-16 16:17:00,21.2,14.2,30.10,NW,318,2.0,5.0,74,0.00,,---,0.00,VWS V14.00,2013-02-16 21:17:00,
2013-02-16 16:22:00,21.1,14.1,30.10,NW,318,2.0,5.0,74,0.00,,---,0.00,VWS V14.00,2013-02-16 21:22:00,
2013-02-16 16:27:00,21.1,14.1,30.10,NW,317,2.0,5.0,74,0.00,,---,0.00,VWS V14.00,2013-02-16 21:27:00,
2013-02-16 16:30:00,21.1,14.4,30.10,NW,318,2.0,5.0,75,0.00,,---,0.00,VWS V14.00,2013-02-16 21:30:00,
2013-02-16 16:32:00,21.2,14.5,30.10,NW,318,1.0,4.0,75,0.00,,---,0.00,VWS V14.00,2013-02-16 21:32:00,
2013-02-16 16:37:00,21.2,14.2,30.10,NW,317,3.0,5.0,74,0.00,,---,0.00,VWS V14.00,2013-02-16 21:37:00,
2013-02-16 16:42:00,21.2,14.5,30.10,NW,318,2.0,5.0,75,0.00,,---,0.00,VWS V14.00,2013-02-16 21:42:00,
2013-02-16 16:47:00,21.1,14.7,30.10,NW,318,4.0,5.0,76,0.00,,---,0.00,VWS V14.00,2013-02-16 21:47:00,
2013-02-16 16:52:00,21.1,14.4,30.10,NW,318,3.0,5.0,75,0.00,,---,0.00,VWS V14.00,2013-02-16 21:52:00,
2013-02-16 16:57:00,21.0,13.7,30.10,NW,317,1.0,5.0,73,0.00,,---,0.00,VWS V14.00,2013-02-16 21:57:00,
2013-02-16 17:00:00,21.0,13.7,30.10,NW,317,1.0,5.0,73,0.00,,---,0.00,VWS V14.00,2013-02-16 22:00:00,
2013-02-16 17:02:00,20.9,13.9,30.10,NW,318,2.0,5.0,74,0.00,,---,0.00,VWS V14.00,2013-02-16 22:02:00,
2013-02-16 17:07:00,20.7,14.6,30.11,NW,318,3.0,6.0,77,0.00,,---,0.00,VWS V14.00,2013-02-16 22:07:00,
2013-02-16 17:12:00,20.5,14.7,30.11,NW,319,1.0,6.0,78,0.00,,---,0.00,VWS V14.00,2013-02-16 22:12:00,
2013-02-16 17:17:00,20.4,14.6,30.11,NW,318,3.0,6.0,78,0.00,,---,0.00,VWS V14.00,2013-02-16 22:17:00,
2013-02-16 17:22:00,20.3,14.6,30.11,NW,317,1.0,6.0,78,0.00,,---,0.00,VWS V14.00,2013-02-16 22:22:00,
2013-02-16 17:27:00,20.2,14.4,30.11,NW,318,2.0,6.0,78,0.00,,---,0.00,VWS V14.00,2013-02-16 22:27:00,
2013-02-16 17:30:00,20.2,14.4,30.11,NW,319,0.0,6.0,78,0.00,,---,0.00,VWS V14.00,2013-02-16 22:30:00,
2013-02-16 17:32:00,20.1,14.4,30.11,NW,318,0.0,3.0,78,0.00,,---,0.00,VWS V14.00,2013-02-16 22:32:00,
2013-02-16 17:37:00,20.0,14.6,30.12,NW,318,3.0,3.0,79,0.00,,---,0.00,VWS V14.00,2013-02-16 22:37:00,
2013-02-16 17:42:00,20.0,14.6,30.12,NW,318,1.0,4.0,79,0.00,,---,0.00,VWS V14.00,2013-02-16 22:42:00,
2013-02-16 17:47:00,19.9,14.4,30.12,NW,318,2.0,4.0,79,0.00,,---,0.00,VWS V14.00,2013-02-16 22:47:00,
2013-02-16 17:52:00,19.8,14.4,30.12,NW,318,3.0,4.0,79,0.00,,---,0.00,VWS V14.00,2013-02-16 22:52:00,
2013-02-16 17:57:00,19.7,14.3,30.12,NW,317,2.0,6.0,79,0.00,,---,0.00,VWS V14.00,2013-02-16 22:57:00,
2013-02-16 18:00:00,19.7,14.3,30.12,NW,318,2.0,6.0,79,0.00,,---,0.00,VWS V14.00,2013-02-16 23:00:00,
2013-02-16 18:02:00,19.5,14.4,30.12,NW,318,4.0,5.0,80,0.00,,---,0.00,VWS V14.00,2013-02-16 23:02:00,
2013-02-16 18:07:00,19.2,14.6,30.12,NW,318,2.0,6.0,82,0.00,,---,0.00,VWS V14.00,2013-02-16 23:07:00,
2013-02-16 18:12:00,19.1,15.1,30.13,NW,318,3.0,8.0,84,0.00,,---,0.00,VWS V14.00,2013-02-16 23:12:00,
2013-02-16 18:17:00,18.8,15.1,30.13,NW,318,4.0,8.0,85,0.00,,---,0.00,VWS V14.00,2013-02-16 23:17:00,
2013-02-16 18:22:00,18.5,14.5,30.13,NW,318,2.0,8.0,84,0.00,,---,0.00,VWS V14.00,2013-02-16 23:22:00,
2013-02-16 18:27:00,18.4,14.6,30.13,NW,317,2.0,8.0,85,0.00,,---,0.00,VWS V14.00,2013-02-16 23:27:00,
2013-02-16 18:30:00,18.4,14.6,30.13,NW,317,1.0,8.0,85,0.00,,---,0.00,VWS V14.00,2013-02-16 23:30:00,
2013-02-16 18:32:00,18.2,14.5,30.13,NW,318,1.0,3.0,85,0.00,,---,0.00,VWS V14.00,2013-02-16 23:32:00,
2013-02-16 18:37:00,18.1,14.6,30.13,NW,318,1.0,5.0,86,0.00,,---,0.00,VWS V14.00,2013-02-16 23:37:00,
2013-02-16 18:42:00,18.1,14.6,30.13,NW,318,1.0,5.0,86,0.00,,---,0.00,VWS V14.00,2013-02-16 23:42:00,
2013-02-16 18:47:00,18.0,14.5,30.14,NW,318,2.0,5.0,86,0.00,,---,0.00,VWS V14.00,2013-02-16 23:47:00,
2013-02-16 18:52:00,17.8,14.3,30.14,NW,318,0.0,5.0,86,0.00,,---,0.00,VWS V14.00,2013-02-16 23:52:00,
2013-02-16 18:57:00,17.8,14.6,30.14,NW,317,0.0,5.0,87,0.00,,---,0.00,VWS V14.00,2013-02-16 23:57:00,
2013-02-16 19:00:00,17.8,14.6,30.14,NW,317,0.0,5.0,87,0.00,,---,0.00,VWS V14.00,2013-02-17 00:00:00,
2013-02-16 19:02:00,17.7,14.5,30.14,NW,317,2.0,4.0,87,0.00,,---,0.00,VWS V14.00,2013-02-17 00:02:00,
2013-02-16 19:07:00,17.7,14.5,30.14,NW,318,3.0,4.0,87,0.00,,---,0.00,VWS V14.00,2013-02-17 00:07:00,
2013-02-16 19:12:00,17.8,14.6,30.15,NW,318,3.0,5.0,87,0.00,,---,0.00,VWS V14.00,2013-02-17 00:12:00,
2013-02-16 19:17:00,18.0,14.8,30.15,NW,318,2.0,7.0,87,0.00,,---,0.00,VWS V14.00,2013-02-17 00:17:00,
2013-02-16 19:22:00,18.1,15.1,30.15,NW,318,4.0,7.0,88,0.00,,---,0.00,VWS V14.00,2013-02-17 00:22:00,
2013-02-16 19:27:00,18.3,15.4,30.15,NW,317,3.0,7.0,88,0.00,,---,0.00,VWS V14.00,2013-02-17 00:27:00,
2013-02-16 19:30:00,18.3,15.4,30.15,NW,317,3.0,7.0,88,0.00,,---,0.00,VWS V14.00,2013-02-17 00:30:00,
2013-02-16 19:33:00,18.3,15.6,30.15,NW,318,5.0,9.0,89,0.00,,---,0.00,VWS V14.00,2013-02-17 00:33:00,
2013-02-16 19:38:00,18.4,15.7,30.15,NW,318,5.0,9.0,89,0.00,,---,0.00,VWS V14.00,2013-02-17 00:38:00,
2013-02-16 19:43:00,18.4,15.7,30.15,NW,318,4.0,9.0,89,0.00,,---,0.00,VWS V14.00,2013-02-17 00:43:00,
2013-02-16 19:48:00,18.4,16.0,30.15,NW,318,2.0,9.0,90,0.00,,---,0.00,VWS V14.00,2013-02-17 00:48:00,
2013-02-16 19:53:00,18.3,15.6,30.15,NW,318,1.0,9.0,89,0.00,,---,0.00,VWS V14.00,2013-02-17 00:53:00,
2013-02-16 19:58:00,18.1,15.4,30.15,NW,318,3.0,4.0,89,0.00,,---,0.00,VWS V14.00,2013-02-17 00:58:00,
2013-02-16 20:00:00,18.1,15.4,30.15,NW,318,4.0,9.0,89,0.00,,---,0.00,VWS V14.00,2013-02-17 01:00:00,
2013-02-16 20:03:00,18.0,15.3,30.15,NW,318,0.0,4.0,89,0.00,,---,0.00,VWS V14.00,2013-02-17 01:03:00,
2013-02-16 20:08:00,17.9,15.2,30.15,NW,318,1.0,4.0,89,0.00,,---,0.00,VWS V14.00,2013-02-17 01:08:00,
2013-02-16 20:13:00,17.8,15.1,30.15,NW,318,0.0,4.0,89,0.00,,---,0.00,VWS V14.00,2013-02-17 01:13:00,
2013-02-16 20:18:00,17.7,15.0,30.16,NW,317,0.0,4.0,89,0.00,,---,0.00,VWS V14.00,2013-02-17 01:18:00,
2013-02-16 20:23:00,17.7,14.8,30.16,NW,318,0.0,4.0,88,0.00,,---,0.00,VWS V14.00,2013-02-17 01:23:00,
2013-02-16 20:28:00,17.6,14.9,30.16,NW,318,3.0,3.0,89,0.00,,---,0.00,VWS V14.00,2013-02-17 01:28:00,
2013-02-16 20:30:00,17.6,14.9,30.16,NW,318,2.0,4.0,89,0.00,,---,0.00,VWS V14.00,2013-02-17 01:30:00,
2013-02-16 20:33:00,17.6,14.9,30.16,NW,318,4.0,4.0,89,0.00,,---,0.00,VWS V14.00,2013-02-17 01:33:00,
2013-02-16 20:38:00,17.5,14.8,30.16,NW,318,0.0,4.0,89,0.00,,---,0.00,VWS V14.00,2013-02-17 01:38:00,
2013-02-16 20:43:00,17.7,15.0,30.16,NW,318,3.0,5.0,89,0.00,,---,0.00,VWS V14.00,2013-02-17 01:43:00,
2013-02-16 20:48:00,17.9,15.2,30.16,NW,318,2.0,6.0,89,0.00,,---,0.00,VWS V14.00,2013-02-17 01:48:00,
2013-02-16 20:53:00,18.0,15.3,30.16,NW,318,3.0,6.0,89,0.01,,---,0.01,VWS V14.00,2013-02-17 01:53:00,
2013-02-16 20:58:00,18.2,15.5,30.16,NW,318,1.0,1.0,89,0.01,,---,0.01,VWS V14.00,2013-02-17 01:58:00,
2013-02-16 21:00:00,18.2,15.5,30.16,NW,318,0.0,6.0,89,0.01,,---,0.01,VWS V14.00,2013-02-17 02:00:00,
2013-02-16 21:03:00,18.3,15.6,30.16,NW,318,0.0,4.0,89,0.01,,---,0.01,VWS V14.00,2013-02-17 02:03:00,
2013-02-16 21:08:00,18.2,15.5,30.16,NW,318,1.0,4.0,89,0.01,,---,0.01,VWS V14.00,2013-02-17 02:08:00,
2013-02-16 21:13:00,18.2,15.5,30.16,NW,318,4.0,4.0,89,0.01,,---,0.01,VWS V14.00,2013-02-17 02:13:00,
2013-02-16 21:18:00,18.2,15.5,30.16,NW,317,3.0,4.0,89,0.01,,---,0.01,VWS V14.00,2013-02-17 02:18:00,
2013-02-16 21:23:00,18.2,15.5,30.16,NW,318,4.0,6.0,89,0.01,,---,0.01,VWS V14.00,2013-02-17 02:23:00,
2013-02-16 21:28:00,18.1,15.4,30.17,NW,317,3.0,4.0,89,0.01,,---,0.01,VWS V14.00,2013-02-17 02:28:00,
2013-02-16 21:30:00,18.1,15.4,30.17,NW,318,4.0,6.0,89,0.01,,---,0.01,VWS V14.00,2013-02-17 02:30:00,
2013-02-16 21:33:00,17.9,14.9,30.17,NW,318,4.0,7.0,88,0.01,,---,0.01,VWS V14.00,2013-02-17 02:33:00,
2013-02-16 21:38:00,17.6,14.4,30.17,NW,318,1.0,8.0,87,0.01,,---,0.01,VWS V14.00,2013-02-17 02:38:00,
2013-02-16 21:43:00,17.5,14.3,30.17,NW,318,2.0,8.0,87,0.01,,---,0.01,VWS V14.00,2013-02-17 02:43:00,
2013-02-16 21:48:00,17.4,14.2,30.17,NW,318,2.0,8.0,87,0.01,,---,0.01,VWS V14.00,2013-02-17 02:48:00,
2013-02-16 21:53:00,17.3,14.1,30.17,NW,318,0.0,8.0,87,0.01,,---,0.01,VWS V14.00,2013-02-17 02:53:00,
2013-02-16 21:58:00,17.1,13.9,30.17,NW,318,1.0,1.0,87,0.00,,---,0.01,VWS V14.00,2013-02-17 02:58:00,
2013-02-16 22:00:00,17.1,13.9,30.17,NW,318,1.0,8.0,87,0.01,,---,0.01,VWS V14.00,2013-02-17 03:00:00,
2013-02-16 22:03:00,16.9,13.7,30.17,NW,318,0.0,3.0,87,0.00,,---,0.01,VWS V14.00,2013-02-17 03:03:00,
2013-02-16 22:08:00,16.4,12.9,30.17,NW,318,0.0,6.0,86,0.00,,---,0.01,VWS V14.00,2013-02-17 03:08:00,
2013-02-16 22:13:00,16.1,12.7,30.17,NW,318,1.0,6.0,86,0.00,,---,0.01,VWS V14.00,2013-02-17 03:13:00,
2013-02-16 22:18:00,15.8,12.1,30.18,NW,318,0.0,6.0,85,0.00,,---,0.01,VWS V14.00,2013-02-17 03:18:00,
2013-02-16 22:23:00,15.4,11.7,30.17,NW,318,0.0,6.0,85,0.00,,---,0.01,VWS V14.00,2013-02-17 03:23:00,
2013-02-16 22:28:00,15.1,11.4,30.18,NW,318,3.0,3.0,85,0.00,,---,0.01,VWS V14.00,2013-02-17 03:28:00,
2013-02-16 22:30:00,15.1,11.4,30.18,NW,317,1.0,6.0,85,0.00,,---,0.01,VWS V14.00,2013-02-17 03:30:00,
2013-02-16 22:33:00,14.9,10.9,30.18,NW,318,3.0,6.0,84,0.00,,---,0.01,VWS V14.00,2013-02-17 03:33:00,
2013-02-16 22:38:00,14.7,10.8,30.18,NW,317,1.0,6.0,84,0.00,,---,0.01,VWS V14.00,2013-02-17 03:38:00,
2013-02-16 22:43:00,14.4,10.2,30.18,NW,317,2.0,7.0,83,0.00,,---,0.01,VWS V14.00,2013-02-17 03:43:00,
2013-02-16 22:48:00,14.2,10.0,30.18,NW,318,1.0,7.0,83,0.00,,---,0.01,VWS V14.00,2013-02-17 03:48:00,
2013-02-16 22:53:00,14.0,9.8,30.18,NW,318,2.0,7.0,83,0.00,,---,0.01,VWS V14.00,2013-02-17 03:53:00,
2013-02-16 22:58:00,13.6,9.4,30.18,NW,318,1.0,4.0,83,0.00,,---,0.01,VWS V14.00,2013-02-17 03:58:00,
2013-02-16 23:00:00,13.7,9.5,30.18,NW,318,1.0,7.0,83,0.00,,---,0.01,VWS V14.00,2013-02-17 04:00:00,
2013-02-16 23:03:00,13.3,9.1,30.18,NW,317,1.0,5.0,83,0.00,,---,0.01,VWS V14.00,2013-02-17 04:03:00,
2013-02-16 23:08:00,13.0,8.8,30.18,NW,318,2.0,6.0,83,0.00,,---,0.01,VWS V14.00,2013-02-17 04:08:00,
2013-02-16 23:13:00,12.8,8.6,30.18,NW,317,6.0,7.0,83,0.00,,---,0.01,VWS V14.00,2013-02-17 04:13:00,
2013-02-16 23:18:00,12.7,8.5,30.18,NW,317,4.0,7.0,83,0.00,,---,0.01,VWS V14.00,2013-02-17 04:18:00,
2013-02-16 23:23:00,12.5,8.3,30.18,NW,317,2.0,7.0,83,0.00,,---,0.01,VWS V14.00,2013-02-17 04:23:00,
2013-02-16 23:28:00,12.3,8.1,30.18,NW,318,3.0,4.0,83,0.00,,---,0.01,VWS V14.00,2013-02-17 04:28:00,
2013-02-16 23:30:00,12.3,8.1,30.18,NW,318,1.0,7.0,83,0.00,,---,0.01,VWS V14.00,2013-02-17 04:30:00,
2013-02-16 23:33:00,12.1,7.9,30.18,NW,318,5.0,6.0,83,0.00,,---,0.01,VWS V14.00,2013-02-17 04:33:00,
2013-02-16 23:38:00,11.8,7.6,30.18,NW,318,4.0,6.0,83,0.00,,---,0.01,VWS V14.00,2013-02-17 04:38:00,
2013-02-16 23:43:00,11.5,7.3,30.18,NW,318,1.0,6.0,83,0.00,,---,0.01,VWS V14.00,2013-02-17 04:43:00,
2013-02-16 23:48:00,11.2,7.1,30.18,NW,317,2.0,6.0,83,0.00,,---,0.01,VWS V14.00,2013-02-17 04:48:00,
2013-02-16 23:53:00,11.0,6.9,30.18,NW,318,1.0,6.0,83,0.00,,---,0.01,VWS V14.00,2013-02-17 04:53:00,
2013-02-16 23:58:00,10.8,6.7,30.18,NW,317,2.0,3.0,83,0.00,,---,0.00,VWS V14.00,2013-02-17 04:58:00,